Weather Roundup
Issued by NWS

Home | Current Version | Previous Version | Text Only | Print | Product List | Glossary On
Versions: 1 2 3 4 5 6 7 8 9 10 11 12 13 14 15 16 17 18 19 20 21 22 23 24 25 26 27 28 29 30 31 32 33 34 35 36 37 38 39 40 41 42 43 44 45 46 47 48 49 50
000
NZUS93 KARX 231310
HRRWXR

CURRENT HOURLY OBSERVATIONS ACROSS
MUCH OF THE UPPER MISSISSIPPI VALLEY
NATIONAL WEATHER SERVICE LA CROSSE WI
800 AM CDT WED MAY 23 2018


...SOUTHEAST MINNESOTA...


CITY           SKY/WX    TMP DP  RH WIND       PRES   REMARKS
ROCHESTER      LGT RAIN  62  60  93 N3        30.18R
ROCHESTER/MAYO FAIR      61  61 100 SE9       30.16S
WINONA         CLOUDY    55  55 100 CALM      30.15S
AUSTIN         LGT RAIN  63  61  94 SE7       30.14F
ALBERT LEA     FAIR      63  61  94 S9        30.13R FOG
DODGE CENTER   FAIR      63  61  94 S12       30.14F
PRESTON        PTSUNNY   60  58  93 S8        30.18S FOG
OWATONNA       FAIR      64  61  88 SE10      30.12S
FARIBAULT      FAIR      64  61  88 CALM      30.12S
$$

...ELSEWHERE IN MINNESOTA...


CITY           SKY/WX    TMP DP  RH WIND       PRES   REMARKS
MINNEAPOLIS    PTSUNNY   65  60  84 SE9       30.12R
INTNL FALLS    FAIR      63  56  78 CALM      30.12R
DULUTH         FAIR      67  56  67 W7        30.15R
RED WING       CLOUDY    64  57  77 SE5       30.14S
REDWOOD FALLS  CLOUDY    64  62  93 S8        30.04S THUNDER
MANKATO        LGT RAIN  63  62  97 SE12      30.07F
WORTHINGTON      N/A     67  58  72 SE17      30.08S
FAIRMONT       CLOUDY    64  60  87 S15       30.11F
$$

...SOUTHWEST WISCONSIN...


CITY           SKY/WX    TMP DP  RH WIND       PRES   REMARKS
LA CROSSE      PTSUNNY   58  56  93 CALM      30.17R
PRAIRIE DU CHI PTSUNNY   60  58  91 CALM      30.18R
BOSCOBEL       FOG       57  56  96 CALM      30.19R VSB 1/2
LONE ROCK      CLOUDY    56  56 100 E5        30.19R FOG
PLATTEVILLE    FAIR      60  60 100 SE5       30.19R
FORT MC COY    FAIR      50  50 100 CALM      30.18S
CAMP DOUGLAS   PTSUNNY   54  54 100 CALM      30.18S FOG
MAUSTON-NEW LI CLOUDY    55  55 100 CALM      30.18S FOG
VIROQUA        FAIR      59  59 100 CALM      30.18S
WIS DELLS      FAIR      57  56  96 CALM      30.20R
$$

...ELSEWHERE IN WISCONSIN...


CITY           SKY/WX    TMP DP  RH WIND       PRES   REMARKS
MILWAUKEE      PTSUNNY   65  59  81 CALM      30.18S
MADISON        PTSUNNY   59  58  96 W3        30.19R FOG
GREEN BAY      FAIR      66  59  78 W7        30.17R
EAU CLAIRE     FAIR      57  55  93 CALM      30.16R
BLACK RVR FLS  CLOUDY    53  53 100 CALM      30.18R FOG
MEDFORD        FAIR      58  57  95 CALM      30.19R
WAUSAU         FAIR      60  57  89 NW6       30.18R
WIS RAPIDS     FAIR      59  58  96 CALM      30.19R
MARSHFIELD     FAIR      62  59  90 CALM      30.18R
RICE LAKE      FAIR      58  57  99 E3        30.18S FOG
$$

...NORTHEAST IOWA...


CITY           SKY/WX    TMP DP  RH WIND       PRES   REMARKS
WATERLOO       PTSUNNY   65  61  87 E3        30.17R
DUBUQUE        FAIR      63  59  87 S8        30.18R
DECORAH        FAIR      61  61 100 VRB3      30.18R
MASON CITY     RAIN      63  63 100 SE16      30.14F FOG
CHARLES CITY   PTSUNNY   63  59  88 CALM      30.20R
OELWEIN        FAIR      64  61  88 SE6       30.19R
$$

...ELSEWHERE IN IOWA...


CITY           SKY/WX    TMP DP  RH WIND       PRES   REMARKS
DES MOINES     PTSUNNY   69  63  81 SE9       30.11R
IOWA CITY      FAIR      67  61  81 E6        30.17R
FORT DODGE     RAIN      65  62  90 E13       30.14S
MARSHALLTOWN   CLOUDY    66  63  90 SE10      30.13R
CEDAR RAPIDS   FAIR      67  62  84 SE10      30.16R
$$

...NORTHERN ILLINOIS...


CITY           SKY/WX    TMP DP  RH WIND       PRES   REMARKS
CHICAGO-OHARE  PTSUNNY   59  54  83 SW3       30.19R HAZE
CHICAGO-MIDWAY PTSUNNY   61  57  87 CALM      30.20R FOG
MOLINE         FAIR      66  62  87 CALM      30.17R
ROCKFORD       FAIR      60  58  92 CALM      30.21S FOG
PEORIA         FAIR      65  57  75 SE6       30.19R
$$

NOTE: "FAIR" INDICATES FEW OR NO CLOUDS BELOW 12,000 FEET WITH NO
SIGNIFICANT WEATHER AND/OR OBSTRUCTIONS TO VISIBILITY. WIND
SPEEDS ARE IN MILES-PER-HOUR.




USA.gov is the U.S. government's official web portal to all federal, state and local government web resources and services.